Showing default

PRSS 1, 43530

Orbit data source: Space-Track

PRSS 1, 43530 is a payload satellite owned by SUPARCO (PK) in SSO that was launched on Mon, 09 Jul 2018 UTC via a CHANG ZHENG 2C launch vehicle from the Jiuquan Satellite Launch Center, China (JSC). Payload-class satellites include a variety of spacecraft equipped with specific instruments for various scientific and technological missions. These include communications satellites like Starlink; space stations such as the ISS; scientific satellites like the Hubble; Earth observation satellites from companies like Planet Labs, Umbra, and HawkEye 360; GPS; miniature CubeSats for education and research; and military/defense satellites.

Loading next visibility...
Identifier
43530, 2018-056B
Orbit
SSO
Country
Flag of UnknownUnknown / PAKI
Related business
Manufacturer
DFH
Mission
Operational Civil Imaging
Bus & Motor
CAST-2000, Unknown motor
Mass
~800 kg wet, ~800 kg dry
Launch date (UTC)
2018-07-09 (7 years ago)
Launch vehicle
CHANG ZHENG 2C
Launch site
Jiuquan Satellite Launch Center, China (JSC)
Object type
Payload
Rocket body
Debris
Shape & HBR
Box + 2 Pan, 4.3 m
Radar Cross Section
14.475 m², Large (>1 m²)

Expand to show TLE details & history
Last TLE update: 4 hours ago

TLE from 4 hours ago
0 PRSS 1
1 43530U 18056B   25353.84102786  .00001120  00000-0  14901-3 0  9991
2 43530  97.8069  61.5196 0001206  93.9619 266.1731 14.81599152401871
Epoch: 2025-12-19T20:11Z
TLE epoch observation values (Epoch: 2025-12-19T20:11:04.807Z)
Latitude
-0.0001°
Longitude
30.07318°
Altitude
627.364 km
Speed
7.545 km/s
True Right ascension
04h 06m 04s
True Declination
0° 00' 00"
Sunlit
Object was in full shadow at epoch
Visualization orbit readout
Latitude
Unknown
Longitude
Unknown
Altitude
Unknown
Speed
Unknown
Apparent Right ascension
Unknown
Apparent Declination
Unknown
Sunlit
N/A
Visualization observer readout
Local Sidereal Time
23:02:20
Azimuth
Unknown
Elevation
Unknown
Doppler factor
Unknown
Orbital elements
Apogee altitude
622.16 km
Perigee altitude
620.471 km
Semi-major axis
6,999.453 km
Eccentricity
0.00012
Inclination
97.8069°
RAAN
61.5196°
Arg. of periapsis
93.9619°
True anomaly
266.15931°
Mean anomaly
266.1731°
Eccentric anomaly
266.16621°
Mean motion
3.70636 °/min
Orbital period
97.13 mins
BSTAR
0.00014901
Loading maneuver chart data...
Computing Atmospheric mass density...
Loading historical data...
Loading historical data...
Loading historical data...
Loading historical data...
Loading historical data...
Loading historical data...
Loading historical data...

Documentation

Showing up to 5 results
|